Location: Alafon
(8.4500°N, 4.2333°E)
Time: 16:35:12
(UTC+00:00)

A-11 Canister half - Pass Details

Date: 10 August 2021
Orbit: 1515 x 1685 km, 47.2° (Epoch: 19 September)

Event Time Altitude Azimuth Distance (km) Brightness Sun altitude
Rises 09:07:14 0° 177° (S) 4,651 11.5 50.0°
Reaches altitude 10° 09:14:23 10° 139° (SE) 3,671 11.4 51.7°
Maximum altitude 09:15:52 10° 130° (SE) 3,639 11.4 52.1°
Drops below altitude 10° 09:17:22 10° 120° (ESE) 3,678 11.6 52.4°
Sets 09:24:28 0° 84° (E) 4,690 12.1 54.1°
